Weather History for KTBN - January, 2013

Change the Weather History Date:

Wednesday, January 9, 2013

  Actual Average (KVIH) Record (KVIH)
Temperature  
Mean Temperature 48 °F 31 °F  
Max Temperature 55 °F 40 °F 68 °F (2002)
Min Temperature 42 °F 21 °F -6 °F (1962)
Degree Days  
Heating Degree Days 16 34  
Month to date heating degree days 306  
Since 1 July heating degree days 2223  
Cooling Degree Days 0 0  
Month to date cooling degree days 0  
Year to date cooling degree days 0  
Moisture  
Dew Point 44 °F    
Average Humidity 95    
Maximum Humidity 100    
Minimum Humidity 51    
Precipitation  
Precipitation 0.01 in 0.08 in 0.61 in (1974)
Month to date precipitation 0.69  
Year to date precipitation 0.69  
Sea Level Pressure  
Sea Level Pressure 30.33 in    
Wind  
Wind Speed 3 mph (NNW)    
Max Wind Speed 9 mph    
Max Gust Speed -    
Visibility 4 miles    
Events Fog , Rain    
T = Trace of Precipitation, MM = Missing Value Source: NWS Daily Summary

Daily Weather History Graph

Daily Weather History Graph

Search for Another Location

Airport or City:

Trip Planner

Search our weather history database for the weather conditions in past years. The results will help you decide how hot, cold, wet, or windy it might be!

Date:

Astronomy

Jan. 09, 2013 Rise Set
Actual Time 7:24 AM CST 5:07 PM CST
Civil Twilight 6:55 AM CST 5:36 PM CST
Nautical Twilight 6:22 AM CST 6:09 PM CST
Astronomical Twilight 5:50 AM CST 6:41 PM CST
Moon 5:03 AM CST (1/9) 3:10 PM CST (1/9)
Length of Visible Light 10h 41m
Length of Day
9h 43m
Waning Crescent, 6% of the Moon is Illuminated
Jan 9
Waning Crescent
Jan 11
New
Jan 18
First Quarter
Jan 26
Full
Feb 3
Last Quarter

Hourly Weather History & Observations

Time (CST) Temp. Windchill Dew Point Humidity Pressure Visibility Wind Dir Wind Speed Gust Speed Precip Events Conditions
12:13 AM 46.4 °F 42.9 °F 46.4 °F 100% 30.20 in 7.0 mi SSW 6.9 mph - N/A   Light Drizzle
12:16 AM 46.4 °F 44.3 °F 46.4 °F 100% 30.20 in 8.0 mi Variable 4.6 mph - N/A   Light Drizzle
12:21 AM 46.4 °F 44.3 °F 46.4 °F 100% 30.21 in 7.0 mi Variable 4.6 mph - N/A   Light Drizzle
12:27 AM 46.4 °F 45.2 °F 46.4 °F 100% 30.21 in 7.0 mi West 3.5 mph - N/A   Light Drizzle
12:30 AM 46.4 °F 45.2 °F 46.4 °F 100% 30.21 in 7.0 mi West 3.5 mph - N/A   Light Drizzle
12:32 AM 46.4 °F 45.2 °F 46.4 °F 100% 30.21 in 7.0 mi West 3.5 mph - N/A   Overcast
12:36 AM 46.4 °F 45.2 °F 46.4 °F 100% 30.22 in 8.0 mi West 3.5 mph - N/A   Overcast
12:54 AM 46.4 °F 43.5 °F 46.4 °F 100% 30.22 in 10.0 mi WSW 5.8 mph - N/A   Overcast
12:55 AM 46.4 °F 44.3 °F 46.4 °F 100% 30.22 in 10.0 mi WSW 4.6 mph - 0.00 in   Overcast
1:06 AM 46.4 °F 45.2 °F 46.4 °F 100% 30.23 in 10.0 mi Variable 3.5 mph - N/A   Overcast
1:19 AM 46.4 °F 43.5 °F 46.4 °F 100% 30.24 in 10.0 mi WSW 5.8 mph - N/A   Overcast
1:39 AM 46.4 °F 44.3 °F 46.4 °F 100% 30.25 in 10.0 mi SW 4.6 mph - N/A   Overcast
1:43 AM 46.4 °F 44.3 °F 46.4 °F 100% 30.25 in 10.0 mi SW 4.6 mph - N/A Rain Light Rain
1:55 AM 46.0 °F 43.9 °F 46.0 °F 100% 30.25 in 6.0 mi SSW 4.6 mph - 0.01 in Rain Light Rain
2:13 AM 46.4 °F 45.2 °F 46.4 °F 100% 30.24 in 10.0 mi South 3.5 mph - N/A   Overcast
2:21 AM 46.4 °F - 46.4 °F 100% 30.24 in 10.0 mi Calm Calm - N/A   Overcast
2:54 AM 46.4 °F - 46.4 °F 100% 30.26 in 10.0 mi Calm Calm - N/A   Overcast
2:55 AM 45.7 °F - 45.7 °F 100% 30.26 in 10.0 mi Calm Calm - 0.00 in   Overcast
3:00 AM 46.4 °F - 46.4 °F 100% 30.26 in 10.0 mi Calm Calm - N/A   Overcast
3:06 AM 46.4 °F - 46.4 °F 100% 30.26 in 10.0 mi Calm Calm - N/A   Overcast
3:12 AM 46.4 °F - 46.4 °F 100% 30.26 in 10.0 mi Calm Calm - N/A   Overcast
3:31 AM 44.6 °F - 44.6 °F 100% 30.26 in 10.0 mi Calm Calm - N/A   Overcast
3:55 AM 45.1 °F - 45.1 °F 100% 30.26 in 7.0 mi Calm Calm - N/A   Overcast
4:37 AM 44.6 °F - 44.6 °F 100% 30.27 in 4.0 mi Calm Calm - N/A   Overcast
4:55 AM 44.4 °F - 44.4 °F 100% 30.27 in 5.0 mi Calm Calm - N/A   Overcast
5:08 AM 44.6 °F - 44.6 °F 100% 30.27 in 2.5 mi Calm Calm - N/A   Overcast
5:20 AM 44.6 °F - 44.6 °F 100% 30.27 in 3.0 mi Calm Calm - N/A   Overcast
5:23 AM 44.6 °F - 44.6 °F 100% 30.27 in 2.5 mi Calm Calm - N/A   Overcast
5:26 AM 44.6 °F - 44.6 °F 100% 30.28 in 1.8 mi Calm Calm - N/A   Overcast
5:27 AM 44.6 °F 43.1 °F 44.6 °F 100% 30.27 in 1.8 mi WNW 3.5 mph - N/A   Overcast
5:33 AM 44.6 °F - 44.6 °F 100% 30.28 in 2.0 mi Calm Calm - N/A   Overcast
5:43 AM 44.6 °F - 44.6 °F 100% 30.29 in 3.0 mi Calm Calm - N/A   Overcast
5:53 AM 44.6 °F 43.1 °F 44.6 °F 100% 30.30 in 1.2 mi West 3.5 mph - N/A   Overcast
5:54 AM 44.6 °F 43.1 °F 44.6 °F 100% 30.30 in 1.5 mi West 3.5 mph - N/A   Overcast
5:55 AM 44.2 °F 42.7 °F 44.2 °F 100% 30.30 in 1.5 mi West 3.5 mph - N/A   Overcast
5:56 AM 44.6 °F - 44.6 °F 100% 30.30 in 1.8 mi Calm Calm - N/A   Overcast
5:57 AM 44.6 °F - 44.6 °F 100% 30.30 in 2.0 mi Calm Calm - N/A   Overcast
5:59 AM 44.6 °F 43.1 °F 44.6 °F 100% 30.30 in 3.0 mi West 3.5 mph - N/A   Overcast
6:15 AM 44.6 °F - 44.6 °F 100% 30.31 in 2.5 mi Calm Calm - N/A   Overcast
6:17 AM 44.6 °F - 44.6 °F 100% 30.31 in 1.8 mi Calm Calm - N/A   Overcast
6:18 AM 44.6 °F - 44.6 °F 100% 30.31 in 1.5 mi Calm Calm - N/A   Overcast
6:20 AM 44.6 °F - 44.6 °F 100% 30.31 in 1.2 mi Calm Calm - N/A   Overcast
6:21 AM 44.6 °F - 44.6 °F 100% 30.31 in 1.0 mi Calm Calm - N/A   Overcast
6:24 AM 44.6 °F - 44.6 °F 100% 30.32 in 0.8 mi Calm Calm - N/A   Overcast
6:38 AM 44.6 °F 43.1 °F 44.6 °F 100% 30.32 in 0.8 mi NNW 3.5 mph - N/A   Mist
6:39 AM 44.6 °F - 44.6 °F 100% 30.32 in 0.5 mi Calm Calm - N/A Fog Fog
6:55 AM 44.6 °F 43.1 °F 44.6 °F 100% 30.33 in 0.5 mi NW 3.5 mph - N/A Fog Fog
7:09 AM 44.6 °F - 44.6 °F 100% 30.34 in 0.2 mi Calm Calm - N/A Fog Fog
7:15 AM 44.6 °F - 44.6 °F 100% 30.34 in 0.2 mi Calm Calm - N/A Fog Fog
7:16 AM 44.6 °F - 44.6 °F 100% 30.34 in 0.2 mi Calm Calm - N/A Fog Fog
7:22 AM 44.6 °F - 44.6 °F 100% 30.34 in 0.2 mi Calm Calm - N/A Fog Fog
7:23 AM 44.6 °F - 44.6 °F 100% 30.34 in 0.2 mi Calm Calm - N/A Fog Fog
7:29 AM 42.8 °F 41.1 °F 42.8 °F 100% 30.35 in 0.2 mi NNW 3.5 mph - N/A Fog Fog
7:33 AM 42.8 °F 41.1 °F 42.8 °F 100% 30.35 in 0.2 mi NNW 3.5 mph - N/A Fog Fog
7:44 AM 42.8 °F 41.1 °F 42.8 °F 100% 30.36 in 0.2 mi NNW 3.5 mph - N/A Fog Fog
7:51 AM 42.8 °F - 42.8 °F 100% 30.35 in 0.2 mi Calm Calm - N/A Fog Fog
7:55 AM 42.8 °F - 42.8 °F 100% 30.36 in 0.2 mi Calm Calm - N/A Fog Fog
8:03 AM 42.8 °F 41.1 °F 42.8 °F 100% 30.36 in 0.2 mi NNW 3.5 mph - N/A Fog Fog
8:31 AM 42.8 °F - 42.8 °F 100% 30.38 in 0.2 mi Calm Calm - N/A Fog Fog
8:45 AM 42.8 °F - 42.8 °F 100% 30.39 in 0.2 mi Calm Calm - N/A Fog Fog
8:47 AM 42.8 °F - 42.8 °F 100% 30.39 in 0.2 mi Calm Calm - N/A Fog Fog
8:55 AM 42.6 °F - 42.6 °F 100% 30.40 in 0.5 mi Calm Calm - N/A Fog Fog
9:02 AM 42.8 °F - 42.8 °F 100% 30.40 in 0.2 mi Calm Calm - N/A Fog Fog
9:21 AM 42.8 °F - 42.8 °F 100% 30.41 in 0.2 mi Calm Calm - N/A Fog Fog
9:22 AM 42.8 °F - 42.8 °F 100% 30.40 in 0.2 mi Calm Calm - N/A Fog Fog
9:26 AM 44.6 °F - 44.6 °F 100% 30.41 in 0.5 mi Calm Calm - N/A Fog Fog
9:30 AM 44.6 °F - 44.6 °F 100% 30.41 in 0.8 mi Calm Calm - N/A   Mist
9:32 AM 44.6 °F - 44.6 °F 100% 30.41 in 1.0 mi Calm Calm - N/A   Mist
9:37 AM 44.6 °F - 44.6 °F 100% 30.41 in 0.8 mi Calm Calm - N/A   Overcast
9:39 AM 44.6 °F - 44.6 °F 100% 30.41 in 0.8 mi Calm Calm - N/A   Overcast
9:40 AM 44.6 °F - 44.6 °F 100% 30.41 in 0.8 mi Calm Calm - N/A   Overcast
9:41 AM 44.6 °F 43.1 °F 44.6 °F 100% 30.41 in 0.8 mi North 3.5 mph - N/A   Overcast
9:42 AM 44.6 °F 43.1 °F 44.6 °F 100% 30.41 in 0.8 mi North 3.5 mph - N/A   Overcast
9:45 AM 44.6 °F 43.1 °F 44.6 °F 100% 30.41 in 1.0 mi North 3.5 mph - N/A   Overcast
9:46 AM 44.6 °F 43.1 °F 44.6 °F 100% 30.41 in 1.2 mi North 3.5 mph - N/A   Overcast
9:47 AM 44.6 °F 43.1 °F 44.6 °F 100% 30.42 in 1.5 mi North 3.5 mph - N/A   Overcast
9:48 AM 44.6 °F 43.1 °F 44.6 °F 100% 30.42 in 1.8 mi North 3.5 mph - N/A   Overcast
9:49 AM 44.6 °F 43.1 °F 44.6 °F 100% 30.42 in 2.5 mi North 3.5 mph - N/A   Overcast
9:50 AM 44.6 °F 43.1 °F 44.6 °F 100% 30.42 in 4.0 mi North 3.5 mph - N/A   Overcast
9:54 AM 44.6 °F - 44.6 °F 100% 30.41 in 2.5 mi Calm Calm - N/A   Overcast
9:55 AM 44.2 °F 42.7 °F 44.2 °F 100% 30.41 in 2.0 mi North 3.5 mph - N/A   Overcast
9:58 AM 44.6 °F 43.1 °F 44.6 °F 100% 30.41 in 1.8 mi Variable 3.5 mph - N/A   Overcast
10:04 AM 44.6 °F 43.1 °F 44.6 °F 100% 30.41 in 2.0 mi North 3.5 mph - N/A   Overcast
10:09 AM 44.6 °F 42.2 °F 44.6 °F 100% 30.42 in 3.0 mi NNE 4.6 mph - N/A   Overcast
10:32 AM 44.6 °F 43.1 °F 44.6 °F 100% 30.41 in 10.0 mi NNE 3.5 mph - N/A   Mostly Cloudy
10:35 AM 44.6 °F 43.1 °F 44.6 °F 100% 30.40 in 10.0 mi North 3.5 mph - N/A   Scattered Clouds
10:55 AM 45.3 °F 42.3 °F 45.3 °F 100% 30.41 in 10.0 mi NNE 5.8 mph - N/A   Partly Cloudy
11:55 AM 48.7 °F - 42.6 °F 79% 30.39 in 10.0 mi East 3.5 mph - N/A   Partly Cloudy
12:55 PM 52.9 °F - 42.6 °F 68% 30.38 in 10.0 mi NE 5.8 mph - N/A   Clear
1:55 PM 55.0 °F - 37.4 °F 51% 30.36 in 10.0 mi NNE 8.1 mph - N/A   Clear
2:55 PM 55.6 °F - 39.0 °F 54% 30.37 in 10.0 mi NE 8.1 mph - N/A   Clear
3:55 PM 54.3 °F - 37.6 °F 53% 30.38 in 10.0 mi NE 5.8 mph - N/A   Clear
4:55 PM 52.2 °F - 37.2 °F 57% 30.39 in 10.0 mi ENE 4.6 mph - N/A   Clear
5:55 PM 49.8 °F - 37.9 °F 64% 30.40 in 10.0 mi NE 3.5 mph - N/A   Clear
6:55 PM 49.1 °F - 33.8 °F 56% 30.39 in 10.0 mi NE 6.9 mph - N/A   Clear
7:55 PM 48.6 °F - 33.4 °F 56% 30.40 in 10.0 mi ENE 6.9 mph - N/A   Clear
8:55 PM 47.7 °F - 34.0 °F 59% 30.41 in 10.0 mi ENE 8.1 mph - N/A   Partly Cloudy
9:55 PM 46.9 °F - 34.5 °F 62% 30.40 in 10.0 mi East 9.2 mph - N/A   Mostly Cloudy
10:55 PM 46.6 °F - 33.4 °F 60% 30.39 in 10.0 mi ENE 5.8 mph - N/A   Overcast
11:55 PM 46.6 °F - 34.0 °F 62% 30.37 in 10.0 mi East 9.2 mph - N/A   Overcast